Fort Myers, FL

3:59 AM EDT on August 25, 2016 (GMT -0400)
Page

Weather History for KFMY - January, 2012

Change the Weather History Date:

Monday, January 16, 2012

  Actual Average Record
Temperature  
Mean Temperature 62 °F 64 °F  
Max Temperature 76 °F 75 °F 85 °F (1943)
Min Temperature 48 °F 53 °F 32 °F (1927)
Degree Days  
Heating Degree Days 3 4  
Month to date heating degree days 75 64  
Since 1 July heating degree days 103 157  
Cooling Degree Days 0 3  
Month to date cooling degree days 19 47  
Year to date cooling degree days 19 47  
Growing Degree Days 12 (Base 50)    
Moisture  
Dew Point 46 °F    
Average Humidity 58    
Maximum Humidity 72    
Minimum Humidity 41    
Precipitation  
Precipitation 0.00 in 0.05 in 1.22 in (1991)
Month to date precipitation T 1.00  
Year to date precipitation T 1.00  
Sea Level Pressure  
Sea Level Pressure 30.38 in    
Wind  
Wind Speed 8 mph (ENE)    
Max Wind Speed 20 mph    
Max Gust Speed 26 mph    
Visibility 10 miles    
Events      
T = Trace of Precipitation, MM = Missing Value Source: NWS Daily Summary

Daily Weather History Graph

Daily Weather History Graph

Search for Another Location

Airport or City:

Trip Planner

Search our weather history database for the weather conditions in past years. The results will help you decide how hot, cold, wet, or windy it might be!

Date:

Astronomy

Jan. 16, 2012 Rise Set
Actual Time 7:17 AM EST 5:57 PM EST
Civil Twilight 6:52 AM EST 6:22 PM EST
Nautical Twilight 6:23 AM EST 6:50 PM EST
Astronomical Twilight 5:55 AM EST 7:18 PM EST
Moon 12:35 AM EST (1/16) 12:01 PM EST (1/16)
Length of Visible Light 11h 29m
Length of Day
10h 39m
Waning Gibbous, 46% of the Moon is Illuminated
Jan 16
Waning Gibbous
Jan 23
New
Jan 30
First Quarter
Feb 7
Full
Feb 14
Last Quarter

Hourly Weather History & Observations

Time (EST) Temp. Dew Point Humidity Pressure Visibility Wind Dir Wind Speed Gust Speed Precip Events Conditions
12:53 AM 50.0 °F 37.0 °F 61% 30.43 in 10.0 mi East 4.6 mph - N/A   Clear
1:53 AM 51.1 °F 39.9 °F 66% 30.42 in 10.0 mi ENE 5.8 mph - N/A   Clear
2:53 AM 51.1 °F 39.9 °F 66% 30.40 in 10.0 mi ENE 6.9 mph - N/A   Clear
3:53 AM 50.0 °F 39.9 °F 68% 30.39 in 10.0 mi NE 6.9 mph - N/A   Clear
4:53 AM 51.1 °F 39.9 °F 66% 30.38 in 10.0 mi NE 6.9 mph - N/A   Clear
5:53 AM 50.0 °F 41.0 °F 71% 30.39 in 10.0 mi NE 6.9 mph - N/A   Clear
6:53 AM 51.1 °F 42.1 °F 71% 30.41 in 10.0 mi NE 6.9 mph - N/A   Clear
7:53 AM 52.0 °F 43.0 °F 71% 30.43 in 10.0 mi NE 9.2 mph - N/A   Clear
8:53 AM 57.0 °F 45.0 °F 64% 30.44 in 10.0 mi NE 10.4 mph - N/A   Clear
9:53 AM 64.0 °F 48.0 °F 56% 30.45 in 10.0 mi ENE 9.2 mph - N/A   Clear
10:53 AM 70.0 °F 48.9 °F 47% 30.43 in 10.0 mi ENE 11.5 mph - N/A   Clear
11:53 AM 73.0 °F 48.9 °F 42% 30.40 in 10.0 mi ESE 17.3 mph 21.9 mph N/A   Clear
12:53 PM 73.9 °F 48.9 °F 41% 30.36 in 10.0 mi East 12.7 mph 21.9 mph N/A   Clear
1:53 PM 75.0 °F 50.0 °F 41% 30.33 in 10.0 mi East 16.1 mph 21.9 mph N/A   Partly Cloudy
2:06 PM 73.4 °F 50.0 °F 44% 30.32 in 10.0 mi East 17.3 mph 24.2 mph N/A   Clear
2:53 PM 75.0 °F 50.0 °F 41% 30.31 in 10.0 mi East 12.7 mph 19.6 mph N/A   Clear
3:53 PM 73.0 °F 50.0 °F 44% 30.32 in 10.0 mi East 13.8 mph - N/A   Mostly Cloudy
4:53 PM 73.0 °F 50.0 °F 44% 30.32 in 10.0 mi East 11.5 mph 19.6 mph N/A   Partly Cloudy
5:53 PM 69.1 °F 48.9 °F 49% 30.33 in 10.0 mi East 8.1 mph - N/A   Clear
6:53 PM 66.0 °F 50.0 °F 56% 30.35 in 10.0 mi East 6.9 mph - N/A   Scattered Clouds
7:53 PM 63.0 °F 50.0 °F 63% 30.36 in 10.0 mi ENE 3.5 mph - N/A   Partly Cloudy
9:53 PM 59.0 °F 48.9 °F 69% 30.36 in 10.0 mi ENE 3.5 mph - N/A   Clear
10:53 PM 57.0 °F 48.9 °F 74% 30.35 in 10.0 mi East 3.5 mph - N/A   Clear
11:53 PM 55.9 °F 48.9 °F 77% 30.35 in 10.0 mi Calm Calm - N/A   Clear